FW1723 Weather Reports


time (UTC)temp
F
wind
direction
speed
knots
gust
knots
rain 1hr
in
rain 24hr
in
rain mn
in
humidity
%
barometer
mb
20220812001536 69 360 2.6 7.0 0.00 0.00 0.00 51 1021.2
20220812000037 69 317 1.7 7.0 0.00 0.00 0.00 50 1021.0
20220811234604 70 307 3.5 8.7 0.00 0.00 0.00 49 1020.9
20220811233057 70 325 3.5 10.4 0.00 0.00 0.00 49 1020.9
20220811231537 71 310 3.5 8.7 0.00 0.00 0.00 48 1020.9
20220811230050 71 309 5.2 9.6 0.00 0.00 0.00 48 1020.8
20220811224600 72 342 3.5 9.6 0.00 0.00 0.00 48 1020.7
20220811223031 72 305 2.6 9.6 0.00 0.00 0.00 46 1020.8
20220811221602 72 313 2.6 7.0 0.00 0.00 0.00 45 1020.8
20220811220142 72 17 3.5 8.7 0.00 0.00 0.00 45 1020.8
20220811214529 72 44 3.5 9.6 0.00 0.00 0.00 44 1020.8
20220811213031 72 30 3.5 10.4 0.00 0.00 0.00 44 1020.8
20220811211536 72 323 5.2 11.3 0.00 0.00 0.00 42 1020.8
20220811210027 72 347 6.1 11.3 0.00 0.00 0.00 42 1020.9
20220811204530 73 338 7.0 14.8 0.00 0.00 0.00 42 1020.7
20220811203037 73 302 4.3 11.3 0.00 0.00 0.00 44 1021.0
20220811201533 73 321 4.3 9.6 0.00 0.00 0.00 46 1020.8
20220811200029 73 5 4.3 11.3 0.00 0.00 0.00 42 1021.0
20220811194551 72 261 3.5 18.2 0.00 0.00 0.00 41 1021.0
20220811193022 72 350 4.3 10.4 0.00 0.00 0.00 43 1021.1
20220811191521 72 337 7.0 10.4 0.00 0.00 0.00 41 1021.2
20220811190024 72 15 7.0 11.3 0.00 0.00 0.00 41 1021.3
20220811184526 71 5 3.5 13.0 0.00 0.00 0.00 45 1021.4
20220811183022 71 360 2.6 10.4 0.00 0.00 0.00 46 1021.3
20220811181516 70 5 4.3 12.2 0.00 0.00 0.00 49 1021.2
20220811180015 70 304 4.3 10.4 0.00 0.00 0.00 48 1021.4
20220811174533 69 36 8.7 13.9 0.00 0.00 0.00 47 1021.5
20220811173010 70 53 2.6 12.2 0.00 0.00 0.00 49 1021.4
20220811171508 69 344 3.5 12.2 0.00 0.00 0.00 49 1021.5
20220811170006 68 49 7.0 12.2 0.00 0.00 0.00 51 1021.7
20220811164503 68 32 4.3 10.4 0.00 0.00 0.00 54 1021.8
20220811163001 68 348 4.3 11.3 0.00 0.00 0.00 53 1021.8
20220811161622 67 313 7.0 12.2 0.00 0.00 0.00 53 1021.8
20220811160110 67 317 4.3 12.2 0.00 0.00 0.00 57 1021.8
20220811154600 66 326 5.2 11.3 0.00 0.00 0.00 57 1021.7
20220811153102 66 349 7.0 11.3 0.00 0.00 0.00 58 1021.7
20220811151548 66 13 6.1 12.2 0.00 0.00 0.00 60 1021.5
20220811150207 65 5 6.1 13.0 0.00 0.00 0.00 61 1021.4
20220811144547 65 355 6.1 13.0 0.00 0.00 0.00 60 1021.3
20220811143040 65 21 6.1 9.6 0.00 0.00 0.00 63 1021.1
20220811141528 63 26 7.0 10.4 0.00 0.00 0.00 68 1021.1
20220811140036 63 38 6.1 13.9 0.00 0.00 0.00 70 1021.0
20220811134538 62 11 5.2 10.4 0.00 0.00 0.00 73 1021.0
20220811133015 62 360 6.1 9.6 0.00 0.00 0.00 75 1021.0
20220811131524 60 360 2.6 10.4 0.00 0.00 0.00 80 1020.9
20220811130024 59 5 5.2 9.6 0.00 0.00 0.00 83 1020.9
20220811124513 57 330 1.7 5.2 0.00 0.00 0.00 90 1020.8
20220811123107 55 229 0.0 2.6 0.00 0.00 0.00 92 1020.8
20220811121553 53 229 0.0 2.6 0.00 0.00 0.00 93 1020.7
20220811120049 52 225 0.9 3.5 0.00 0.00 0.00 94 1020.5
20220811114545 50 249 1.7 3.5 0.00 0.00 0.00 94 1020.5
20220811113102 49 256 0.9 2.6 0.00 0.00 0.00 94 1020.2
20220811111538 49 256 0.0 2.6 0.00 0.00 0.00 94 1020.1
20220811110037 49 256 0.0 2.6 0.00 0.00 0.00 93 1019.9
20220811104546 49 256 0.9 1.7 0.00 0.00 0.00 93 1019.8
20220811103035 49 256 0.9 2.6 0.00 0.00 0.00 93 1019.6
20220811101530 49 256 0.9 2.6 0.00 0.00 0.00 93 1019.4
20220811100046 49 256 1.7 3.5 0.00 0.00 0.00 92 1019.4
20220811094537 49 260 1.7 3.5 0.00 0.00 0.00 92 1019.2
20220811093025 50 261 1.7 2.6 0.00 0.00 0.00 92 1019.2
20220811091525 50 262 0.9 3.5 0.00 0.00 0.00 91 1019.3
20220811090026 50 263 0.9 2.6 0.00 0.00 0.00 91 1019.2
20220811084525 50 263 1.7 2.6 0.00 0.00 0.00 90 1019.2
20220811083025 51 263 0.0 3.5 0.00 0.00 0.00 90 1019.2
20220811081522 51 263 1.7 3.5 0.00 0.00 0.00 89 1019.3
20220811080016 51 263 1.7 2.6 0.00 0.00 0.00 88 1019.3
20220811074529 52 263 0.9 2.6 0.00 0.00 0.00 88 1019.4
20220811073028 52 262 2.6 5.2 0.00 0.00 0.00 87 1019.4
20220811071522 53 265 1.7 2.6 0.00 0.00 0.00 86 1019.5
20220811070016 54 265 0.9 2.6 0.00 0.00 0.00 84 1019.5
20220811064505 54 265 1.7 2.6 0.00 0.00 0.00 84 1019.4
20220811063007 55 265 0.9 1.7 0.00 0.00 0.00 83 1019.5
20220811061501 55 265 0.0 2.6 0.00 0.00 0.00 82 1019.6
20220811060059 56 269 0.9 1.7 0.00 0.00 0.00 81 1019.6
20220811054625 56 270 0.9 1.7 0.00 0.00 0.00 81 1019.6
20220811053055 56 271 0.9 2.6 0.00 0.00 0.00 81 1019.6
20220811051604 57 273 0.9 2.6 0.00 0.00 0.00 80 1019.6
20220811050100 58 279 1.7 2.6 0.00 0.00 0.00 78 1019.5
20220811044549 58 283 0.0 1.7 0.00 0.00 0.00 77 1019.4
20220811043103 59 283 0.9 2.6 0.00 0.00 0.00 76 1019.4
20220811041543 60 283 0.9 1.7 0.00 0.00 0.00 75 1019.4
20220811040051 61 283 0.9 1.7 0.00 0.00 0.00 73 1019.4
20220811034607 62 287 0.9 2.6 0.00 0.00 0.00 72 1019.3
20220811033036 62 287 0.9 3.5 0.00 0.00 0.00 71 1019.2
20220811030106 64 289 0.0 2.6 0.00 0.00 0.00 70 1019.0
20220811024637 65 303 0.9 4.3 0.00 0.00 0.00 69 1019.0
20220811023106 66 267 1.7 3.5 0.00 0.00 0.00 68 1018.7
20220811021558 67 303 0.0 3.5 0.00 0.00 0.00 68 1018.6
20220811020045 67 303 0.9 3.5 0.00 0.00 0.00 67 1018.5
20220811014542 68 317 1.7 5.2 0.00 0.00 0.00 67 1018.3
20220811013100 69 323 2.6 7.0 0.00 0.00 0.00 69 1018.1
20220811011613 70 320 0.0 4.3 0.00 0.00 0.00 69 1017.6
20220811010114 71 294 0.9 4.3 0.00 0.00 0.00 67 1017.4
20220811004542 72 323 2.6 8.7 0.00 0.00 0.00 65 1017.3
20220811003047 73 344 3.5 8.7 0.00 0.00 0.00 64 1017.2